DW6891 Weather Reports


time (UTC)temp
C
wind
direction
speed
KPH
gust
KPH
rain 1hr
cm
rain 24hr
cm
rain mn
cm
humidity
%
barometer
mb
20260503192500 25 262 3.2 11.3 0.00 0.00 0.00 46 1012.1
20260503192000 25 314 1.6 8.0 0.00 0.00 0.00 48 1012.2
20260503191458 26 283 6.4 8.0 0.00 0.00 0.00 47 1012.3
20260503190958 26 314 4.8 8.0 0.00 0.00 0.00 46 1012.3
20260503190459 25 359 3.2 8.0 0.00 0.00 0.00 46 1012.4
20260503190000 25 261 1.6 8.0 0.00 0.00 0.00 48 1012.4
20260503185500 25 359 0.0 8.0 0.00 0.00 0.00 47 1012.5
20260503185000 24 293 1.6 8.0 0.00 0.00 0.00 52 1012.5
20260503184459 24 283 4.8 9.7 0.00 0.00 0.00 52 1012.5
20260503183959 24 274 3.2 9.7 0.00 0.00 0.00 51 1012.6
20260503183501 24 287 8.0 8.0 0.00 0.00 0.00 54 1012.7
20260503182458 23 297 4.8 9.7 0.00 0.00 0.00 54 1012.7
20260503181959 23 165 0.0 6.4 0.00 0.00 0.00 53 1012.8
20260503180959 23 243 1.6 6.4 0.00 0.00 0.00 54 1012.8
20260503175958 22 283 1.6 8.0 0.00 0.00 0.00 58 1012.9
20260503175000 22 277 1.6 6.4 0.00 0.00 0.00 59 1013.0
20260503174501 22 271 1.6 9.7 0.00 0.00 0.00 58 1013.0
20260503173959 21 356 4.8 9.7 0.00 0.00 0.00 59 1013.0
20260503173459 21 188 1.6 6.4 0.00 0.00 0.00 60 1013.1
20260503173001 21 289 1.6 11.3 0.00 0.00 0.00 64 1013.1
20260503172459 21 242 8.0 8.0 0.00 0.00 0.00 61 1013.1
20260503171959 21 254 1.6 6.4 0.00 0.00 0.00 62 1013.2
20260503171459 20 187 0.0 8.0 0.00 0.00 0.00 63 1013.2
20260503171001 20 278 1.6 9.7 0.00 0.00 0.00 64 1013.2
20260503170501 20 248 1.6 4.8 0.00 0.00 0.00 65 1013.2
20260503150958 13 57 0.0 1.6 0.00 0.00 0.00 94 1013.5
20260503150458 13 57 0.0 1.6 0.00 0.00 0.00 96 1013.6
20260503130957 10 57 0.0 0.0 0.00 0.00 0.00 93 1013.4
20260503130458 10 57 0.0 0.0 0.00 0.00 0.00 93 1013.4
20260503110459 11 57 0.0 0.0 0.00 0.00 0.00 92 1013.5
20260503090457 12 57 0.0 0.0 0.00 0.00 0.00 90 1013.7
20260503081459 12 57 0.0 1.6 0.00 0.00 0.00 87 1013.9
20260503080958 12 57 0.0 1.6 0.00 0.00 0.00 87 1013.9
20260503080458 12 57 0.0 1.6 0.00 0.00 0.00 87 1013.8
20260503072458 13 57 0.0 0.0 0.00 0.00 0.00 83 1013.8
20260503071959 13 57 0.0 0.0 0.00 0.00 0.00 83 1013.8
20260503071458 13 57 0.0 0.0 0.00 0.00 0.00 82 1013.7
20260503070457 13 57 0.0 0.0 0.00 0.00 0.00 82 1013.8
20260503054959 15 26 1.6 3.2 0.00 0.00 0.00 76 1013.5
20260503054500 15 1 0.0 0.0 0.00 0.00 0.00 75 1013.4
20260503054000 15 1 0.0 0.0 0.00 0.00 0.00 75 1013.4
20260503053501 16 1 0.0 0.0 0.00 0.00 0.00 74 1013.4
20260503053001 16 1 0.0 0.0 0.00 0.00 0.00 74 1013.4
20260503052500 16 1 0.0 0.0 0.00 0.00 0.00 73 1013.4
20260503052000 16 1 0.0 0.0 0.00 0.00 0.00 72 1013.4
20260503050458 16 1 0.0 0.0 0.00 0.00 0.00 70 1013.4
20260503045958 16 1 0.0 0.0 0.00 0.00 0.00 70 1013.3
20260503045459 17 1 0.0 0.0 0.00 0.00 0.00 69 1013.3
20260503044958 17 1 0.0 1.6 0.00 0.00 0.00 68 1013.2
20260503044459 17 1 0.0 1.6 0.00 0.00 0.00 67 1013.2
20260503043958 17 1 0.0 1.6 0.00 0.00 0.00 65 1013.1
20260503043458 17 1 0.0 3.2 0.00 0.00 0.00 66 1013.1
20260503042959 18 11 1.6 3.2 0.00 0.00 0.00 65 1013.1
20260503042459 18 359 0.0 1.6 0.00 0.00 0.00 65 1013.1
20260503041959 18 359 0.0 1.6 0.00 0.00 0.00 64 1013.1
20260503041458 18 359 0.0 1.6 0.00 0.00 0.00 64 1012.9
20260503040957 18 359 0.0 1.6 0.00 0.00 0.00 64 1012.9
20260503040500 18 359 0.0 1.6 0.00 0.00 0.00 63 1012.8
20260503035457 18 15 0.0 3.2 0.00 0.00 0.00 62 1012.6
20260503034957 19 15 0.0 3.2 0.00 0.00 0.00 62 1012.6
20260503034457 19 339 0.0 3.2 0.00 0.00 0.00 61 1012.4
20260503033958 19 345 1.6 9.7 0.00 0.00 0.00 60 1012.4
20260503033459 20 339 1.6 9.7 0.00 0.00 0.00 61 1012.4
20260503032459 20 327 1.6 8.0 0.00 0.00 0.00 60 1012.2
20260503031958 20 314 0.0 3.2 0.00 0.00 0.00 60 1012.2
20260503031459 20 314 1.6 3.2 0.00 0.00 0.00 59 1012.2
20260503030959 21 319 1.6 3.2 0.00 0.00 0.00 59 1012.1
20260503030457 21 315 1.6 6.4 0.00 0.00 0.00 59 1012.0
20260503030001 21 359 1.6 8.0 0.00 0.00 0.00 58 1011.9
20260503025459 21 287 1.6 8.0 0.00 0.00 0.00 57 1011.9
20260503025000 21 295 0.0 3.2 0.00 0.00 0.00 57 1011.9
20260503024458 22 295 0.0 3.2 0.00 0.00 0.00 56 1011.9
20260503023958 22 335 3.2 4.8 0.00 0.00 0.00 55 1011.8
20260503023459 22 323 0.0 8.0 0.00 0.00 0.00 55 1011.8
20260503022959 22 313 4.8 8.0 0.00 0.00 0.00 55 1011.8
20260503022459 22 308 0.0 6.4 0.00 0.00 0.00 55 1011.8
20260503021958 22 319 0.0 8.0 0.00 0.00 0.00 55 1011.7
20260503021459 22 319 0.0 8.0 0.00 0.00 0.00 52 1011.7
20260503020958 23 264 0.0 4.8 0.00 0.00 0.00 52 1011.7
20260503020001 23 8 3.2 4.8 0.00 0.00 0.00 50 1011.7
20260503015459 23 215 1.6 8.0 0.00 0.00 0.00 50 1011.8
20260503014959 23 333 1.6 9.7 0.00 0.00 0.00 49 1011.8
20260503014459 23 350 1.6 11.3 0.00 0.00 0.00 49 1011.8
20260503014000 24 359 3.2 12.9 0.00 0.00 0.00 49 1011.8
20260503013459 24 295 6.4 11.3 0.00 0.00 0.00 48 1011.8
20260503012958 25 28 6.4 9.7 0.00 0.00 0.00 47 1011.9
20260503012500 25 261 1.6 11.3 0.00 0.00 0.00 46 1011.9
20260503011958 25 333 6.4 11.3 0.00 0.00 0.00 47 1011.9
20260503011459 25 46 4.8 9.7 0.00 0.00 0.00 46 1011.8
20260503010959 25 183 3.2 9.7 0.00 0.00 0.00 45 1011.9
20260503010459 25 302 3.2 8.0 0.00 0.00 0.00 46 1011.9
20260503010002 25 350 3.2 12.9 0.00 0.00 0.00 46 1011.9
20260503005458 25 265 4.8 11.3 0.00 0.00 0.00 47 1011.9
20260503004958 25 330 1.6 8.0 0.00 0.00 0.00 46 1012.0
20260503003958 26 213 3.2 9.7 0.00 0.00 0.00 46 1012.0
20260503003458 25 39 3.2 12.9 0.00 0.00 0.00 48 1012.1
20260503003000 25 1 3.2 14.5 0.00 0.00 0.00 45 1012.1
20260503002458 25 321 0.0 12.9 0.00 0.00 0.00 46 1012.1
20260503001959 26 236 4.8 12.9 0.00 0.00 0.00 46 1012.1
20260503001458 26 64 3.2 8.0 0.00 0.00 0.00 47 1012.1
20260503000959 26 1 4.8 9.7 0.00 0.00 0.00 46 1012.1
20260502235458 26 323 3.2 11.3 0.00 0.00 0.00 46 1012.2
20260502234959 25 305 4.8 14.5 0.00 0.00 0.00 47 1012.2
20260502234459 25 293 4.8 14.5 0.00 0.00 0.00 46 1012.2
20260502234000 25 253 1.6 12.9 0.00 0.00 0.00 48 1012.4
20260502233459 25 266 3.2 12.9 0.00 0.00 0.00 48 1012.4
20260502232958 25 271 3.2 11.3 0.00 0.00 0.00 49 1012.5
20260502232500 25 266 0.0 14.5 0.00 0.00 0.00 49 1012.6
20260502231958 25 256 3.2 14.5 0.00 0.00 0.00 50 1012.7
20260502231459 25 358 0.0 16.1 0.00 0.00 0.00 51 1012.7
20260502230958 25 360 4.8 17.7 0.00 0.00 0.00 51 1012.7
20260502230458 25 249 4.8 17.7 0.00 0.00 0.00 51 1012.9
20260502225958 25 311 8.0 12.9 0.00 0.00 0.00 52 1013.0
20260502224958 25 280 8.0 11.3 0.00 0.00 0.00 50 1013.1
20260502224459 25 348 3.2 11.3 0.00 0.00 0.00 50 1013.1
20260502223959 25 337 4.8 12.9 0.00 0.00 0.00 52 1013.2
20260502223459 25 304 6.4 12.9 0.00 0.00 0.00 49 1013.3
20260502222958 25 253 4.8 12.9 0.00 0.00 0.00 50 1013.4
20260502222458 25 254 1.6 8.0 0.00 0.00 0.00 50 1013.4
20260502221958 25 178 0.0 9.7 0.00 0.00 0.00 52 1013.4
20260502221459 24 285 4.8 11.3 0.00 0.00 0.00 52 1013.5
20260502220458 25 15 9.7 12.9 0.00 0.00 0.00 50 1013.6
20260502215958 24 326 4.8 11.3 0.00 0.00 0.00 51 1013.6
20260502215459 24 336 3.2 12.9 0.00 0.00 0.00 53 1013.6
20260502214958 25 283 6.4 12.9 0.00 0.00 0.00 49 1013.7
20260502214501 25 278 3.2 8.0 0.00 0.00 0.00 52 1013.7
20260502214000 25 278 1.6 11.3 0.00 0.00 0.00 52 1013.8
20260502213500 24 319 3.2 11.3 0.00 0.00 0.00 53 1013.8
20260502212959 24 249 1.6 12.9 0.00 0.00 0.00 53 1013.9
20260502211959 23 351 4.8 9.7 0.00 0.00 0.00 52 1014.1
20260502210001 23 174 1.6 11.3 0.00 0.00 0.00 52 1014.2
20260502205500 23 294 3.2 11.3 0.00 0.00 0.00 52 1014.2
20260502205000 23 7 6.4 9.7 0.00 0.00 0.00 55 1014.2
20260502204459 22 158 0.0 9.7 0.00 0.00 0.00 55 1014.3
20260502203959 22 280 3.2 11.3 0.00 0.00 0.00 55 1014.4
20260502203459 22 358 8.0 11.3 0.00 0.00 0.00 59 1014.4
20260502202958 21 328 8.0 9.7 0.00 0.00 0.00 59 1014.3
20260502202458 21 226 0.0 8.0 0.00 0.00 0.00 57 1014.4
20260502202000 22 231 3.2 9.7 0.00 0.00 0.00 54 1014.5
20260502201459 22 198 0.0 9.7 0.00 0.00 0.00 56 1014.6
20260502201000 22 341 4.8 9.7 0.00 0.00 0.00 56 1014.6
20260502200500 22 255 3.2 11.3 0.00 0.00 0.00 58 1014.6
20260502195458 22 296 3.2 8.0 0.00 0.00 0.00 59 1014.7
20260502194958 22 280 3.2 9.7 0.00 0.00 0.00 57 1014.8
20260502194459 22 229 9.7 9.7 0.00 0.00 0.00 57 1014.9
20260502193959 21 319 3.2 8.0 0.00 0.00 0.00 56 1014.9
20260502193459 22 219 0.0 8.0 0.00 0.00 0.00 57 1015.0